Index of /20260429/WXO-DD/model_gdps/15km/12/210
Name Last modified Size Description
Parent Directory -
20260429T12Z_MSC_GDPS_AbsoluteVorticity_IsbL-0200_LatLon0.15_PT210H.grib2 2026-04-29 16:40 1.2M
20260429T12Z_MSC_GDPS_AbsoluteVorticity_IsbL-0250_LatLon0.15_PT210H.grib2 2026-04-29 16:40 1.3M
20260429T12Z_MSC_GDPS_AbsoluteVorticity_IsbL-0500_LatLon0.15_PT210H.grib2 2026-04-29 16:40 1.2M
20260429T12Z_MSC_GDPS_AbsoluteVorticity_IsbL-0700_LatLon0.15_PT210H.grib2 2026-04-29 16:40 1.3M
20260429T12Z_MSC_GDPS_AbsoluteVorticity_IsbL-0850_LatLon0.15_PT210H.grib2 2026-04-29 16:40 1.6M
20260429T12Z_MSC_GDPS_AirTemp-Max_AGL-2m_LatLon0.15_PT210H.grib2 2026-04-29 16:40 748K
20260429T12Z_MSC_GDPS_AirTemp-Min_AGL-2m_LatLon0.15_PT210H.grib2 2026-04-29 16:40 793K
20260429T12Z_MSC_GDPS_AirTemp_AGL-120m_LatLon0.15_PT210H.grib2 2026-04-29 16:40 905K
20260429T12Z_MSC_GDPS_AirTemp_AGL-2m_LatLon0.15_PT210H.grib2 2026-04-29 16:40 1.0M
20260429T12Z_MSC_GDPS_AirTemp_AGL-40m_LatLon0.15_PT210H.grib2 2026-04-29 16:40 811K
20260429T12Z_MSC_GDPS_AirTemp_AGL-80m_LatLon0.15_PT210H.grib2 2026-04-29 16:40 915K
20260429T12Z_MSC_GDPS_AirTemp_IsbL-0001_LatLon0.15_PT210H.grib2 2026-04-29 16:40 669K
20260429T12Z_MSC_GDPS_AirTemp_IsbL-0005_LatLon0.15_PT210H.grib2 2026-04-29 16:40 692K
20260429T12Z_MSC_GDPS_AirTemp_IsbL-0010_LatLon0.15_PT210H.grib2 2026-04-29 16:40 766K
20260429T12Z_MSC_GDPS_AirTemp_IsbL-0020_LatLon0.15_PT210H.grib2 2026-04-29 16:40 789K
20260429T12Z_MSC_GDPS_AirTemp_IsbL-0030_LatLon0.15_PT210H.grib2 2026-04-29 16:40 835K
20260429T12Z_MSC_GDPS_AirTemp_IsbL-0050_LatLon0.15_PT210H.grib2 2026-04-29 16:40 803K
20260429T12Z_MSC_GDPS_AirTemp_IsbL-0100_LatLon0.15_PT210H.grib2 2026-04-29 16:40 959K
20260429T12Z_MSC_GDPS_AirTemp_IsbL-0150_LatLon0.15_PT210H.grib2 2026-04-29 16:40 955K
20260429T12Z_MSC_GDPS_AirTemp_IsbL-0175_LatLon0.15_PT210H.grib2 2026-04-29 16:40 949K
20260429T12Z_MSC_GDPS_AirTemp_IsbL-0200_LatLon0.15_PT210H.grib2 2026-04-29 16:40 962K
20260429T12Z_MSC_GDPS_AirTemp_IsbL-0225_LatLon0.15_PT210H.grib2 2026-04-29 16:40 961K
20260429T12Z_MSC_GDPS_AirTemp_IsbL-0250_LatLon0.15_PT210H.grib2 2026-04-29 16:40 1.0M
20260429T12Z_MSC_GDPS_AirTemp_IsbL-0275_LatLon0.15_PT210H.grib2 2026-04-29 16:40 1.0M
20260429T12Z_MSC_GDPS_AirTemp_IsbL-0300_LatLon0.15_PT210H.grib2 2026-04-29 16:40 938K
20260429T12Z_MSC_GDPS_AirTemp_IsbL-0350_LatLon0.15_PT210H.grib2 2026-04-29 16:40 924K
20260429T12Z_MSC_GDPS_AirTemp_IsbL-0400_LatLon0.15_PT210H.grib2 2026-04-29 16:40 938K
20260429T12Z_MSC_GDPS_AirTemp_IsbL-0450_LatLon0.15_PT210H.grib2 2026-04-29 16:40 960K
20260429T12Z_MSC_GDPS_AirTemp_IsbL-0500_LatLon0.15_PT210H.grib2 2026-04-29 16:40 1.0M
20260429T12Z_MSC_GDPS_AirTemp_IsbL-0550_LatLon0.15_PT210H.grib2 2026-04-29 16:40 1.0M
20260429T12Z_MSC_GDPS_AirTemp_IsbL-0600_LatLon0.15_PT210H.grib2 2026-04-29 16:40 885K
20260429T12Z_MSC_GDPS_AirTemp_IsbL-0650_LatLon0.15_PT210H.grib2 2026-04-29 16:40 909K
20260429T12Z_MSC_GDPS_AirTemp_IsbL-0700_LatLon0.15_PT210H.grib2 2026-04-29 16:40 946K
20260429T12Z_MSC_GDPS_AirTemp_IsbL-0750_LatLon0.15_PT210H.grib2 2026-04-29 16:40 1.0M
20260429T12Z_MSC_GDPS_AirTemp_IsbL-0800_LatLon0.15_PT210H.grib2 2026-04-29 16:40 1.1M
20260429T12Z_MSC_GDPS_AirTemp_IsbL-0850_LatLon0.15_PT210H.grib2 2026-04-29 16:40 1.1M
20260429T12Z_MSC_GDPS_AirTemp_IsbL-0875_LatLon0.15_PT210H.grib2 2026-04-29 16:40 1.2M
20260429T12Z_MSC_GDPS_AirTemp_IsbL-0900_LatLon0.15_PT210H.grib2 2026-04-29 16:40 1.2M
20260429T12Z_MSC_GDPS_AirTemp_IsbL-0925_LatLon0.15_PT210H.grib2 2026-04-29 16:40 1.1M
20260429T12Z_MSC_GDPS_AirTemp_IsbL-0950_LatLon0.15_PT210H.grib2 2026-04-29 16:40 1.1M
20260429T12Z_MSC_GDPS_AirTemp_IsbL-0970_LatLon0.15_PT210H.grib2 2026-04-29 16:40 1.1M
20260429T12Z_MSC_GDPS_AirTemp_IsbL-0985_LatLon0.15_PT210H.grib2 2026-04-29 16:40 1.1M
20260429T12Z_MSC_GDPS_AirTemp_IsbL-1000_LatLon0.15_PT210H.grib2 2026-04-29 16:40 1.1M
20260429T12Z_MSC_GDPS_AirTemp_IsbL-1015_LatLon0.15_PT210H.grib2 2026-04-29 16:40 1.1M
20260429T12Z_MSC_GDPS_Albedo_Sfc_LatLon0.15_PT210H.grib2 2026-04-29 16:40 245K
20260429T12Z_MSC_GDPS_CAPE_Sfc_LatLon0.15_PT210H.grib2 2026-04-29 16:40 3.8M
20260429T12Z_MSC_GDPS_CIN_Sfc_LatLon0.15_PT210H.grib2 2026-04-29 16:40 2.9M
20260429T12Z_MSC_GDPS_CloudWater_EAtm_LatLon0.15_PT210H.grib2 2026-04-29 16:40 536K
20260429T12Z_MSC_GDPS_ConvectivePrecip-Accum_Sfc_LatLon0.15_PT210H.grib2 2026-04-29 16:40 4.0M
20260429T12Z_MSC_GDPS_DewPointDepression_AGL-2m_LatLon0.15_PT210H.grib2 2026-04-29 16:40 770K
20260429T12Z_MSC_GDPS_DewPointDepression_IsbL-0010_LatLon0.15_PT210H.grib2 2026-04-29 16:40 71K
20260429T12Z_MSC_GDPS_DewPointDepression_IsbL-0020_LatLon0.15_PT210H.grib2 2026-04-29 16:40 70K
20260429T12Z_MSC_GDPS_DewPointDepression_IsbL-0030_LatLon0.15_PT210H.grib2 2026-04-29 16:40 90K
20260429T12Z_MSC_GDPS_DewPointDepression_IsbL-0050_LatLon0.15_PT210H.grib2 2026-04-29 16:40 380K
20260429T12Z_MSC_GDPS_DewPointDepression_IsbL-0100_LatLon0.15_PT210H.grib2 2026-04-29 16:40 390K
20260429T12Z_MSC_GDPS_DewPointDepression_IsbL-0150_LatLon0.15_PT210H.grib2 2026-04-29 16:40 488K
20260429T12Z_MSC_GDPS_DewPointDepression_IsbL-0175_LatLon0.15_PT210H.grib2 2026-04-29 16:40 589K
20260429T12Z_MSC_GDPS_DewPointDepression_IsbL-0200_LatLon0.15_PT210H.grib2 2026-04-29 16:40 683K
20260429T12Z_MSC_GDPS_DewPointDepression_IsbL-0225_LatLon0.15_PT210H.grib2 2026-04-29 16:40 755K
20260429T12Z_MSC_GDPS_DewPointDepression_IsbL-0250_LatLon0.15_PT210H.grib2 2026-04-29 16:40 858K
20260429T12Z_MSC_GDPS_DewPointDepression_IsbL-0275_LatLon0.15_PT210H.grib2 2026-04-29 16:40 883K
20260429T12Z_MSC_GDPS_DewPointDepression_IsbL-0300_LatLon0.15_PT210H.grib2 2026-04-29 16:40 928K
20260429T12Z_MSC_GDPS_DewPointDepression_IsbL-0350_LatLon0.15_PT210H.grib2 2026-04-29 16:40 960K
20260429T12Z_MSC_GDPS_DewPointDepression_IsbL-0400_LatLon0.15_PT210H.grib2 2026-04-29 16:40 1.0M
20260429T12Z_MSC_GDPS_DewPointDepression_IsbL-0450_LatLon0.15_PT210H.grib2 2026-04-29 16:40 1.0M
20260429T12Z_MSC_GDPS_DewPointDepression_IsbL-0500_LatLon0.15_PT210H.grib2 2026-04-29 16:40 1.0M
20260429T12Z_MSC_GDPS_DewPointDepression_IsbL-0550_LatLon0.15_PT210H.grib2 2026-04-29 16:40 1.0M
20260429T12Z_MSC_GDPS_DewPointDepression_IsbL-0600_LatLon0.15_PT210H.grib2 2026-04-29 16:40 1.0M
20260429T12Z_MSC_GDPS_DewPointDepression_IsbL-0650_LatLon0.15_PT210H.grib2 2026-04-29 16:40 1.1M
20260429T12Z_MSC_GDPS_DewPointDepression_IsbL-0700_LatLon0.15_PT210H.grib2 2026-04-29 16:40 1.1M
20260429T12Z_MSC_GDPS_DewPointDepression_IsbL-0750_LatLon0.15_PT210H.grib2 2026-04-29 16:40 1.1M
20260429T12Z_MSC_GDPS_DewPointDepression_IsbL-0800_LatLon0.15_PT210H.grib2 2026-04-29 16:40 1.2M
20260429T12Z_MSC_GDPS_DewPointDepression_IsbL-0850_LatLon0.15_PT210H.grib2 2026-04-29 16:40 1.2M
20260429T12Z_MSC_GDPS_DewPointDepression_IsbL-0875_LatLon0.15_PT210H.grib2 2026-04-29 16:40 1.1M
20260429T12Z_MSC_GDPS_DewPointDepression_IsbL-0900_LatLon0.15_PT210H.grib2 2026-04-29 16:40 1.1M
20260429T12Z_MSC_GDPS_DewPointDepression_IsbL-0925_LatLon0.15_PT210H.grib2 2026-04-29 16:40 1.0M
20260429T12Z_MSC_GDPS_DewPointDepression_IsbL-0950_LatLon0.15_PT210H.grib2 2026-04-29 16:40 1.0M
20260429T12Z_MSC_GDPS_DewPointDepression_IsbL-0970_LatLon0.15_PT210H.grib2 2026-04-29 16:40 1.0M
20260429T12Z_MSC_GDPS_DewPointDepression_IsbL-0985_LatLon0.15_PT210H.grib2 2026-04-29 16:40 1.0M
20260429T12Z_MSC_GDPS_DewPointDepression_IsbL-1000_LatLon0.15_PT210H.grib2 2026-04-29 16:40 1.0M
20260429T12Z_MSC_GDPS_DewPointDepression_IsbL-1015_LatLon0.15_PT210H.grib2 2026-04-29 16:40 922K
20260429T12Z_MSC_GDPS_DewPoint_AGL-2m_LatLon0.15_PT210H.grib2 2026-04-29 16:40 609K
20260429T12Z_MSC_GDPS_DownwardLongwaveRadiationFlux-Accum_Sfc_LatLon0.15_PT210H.grib2 2026-04-29 16:40 719K
20260429T12Z_MSC_GDPS_DownwardShortwaveRadiationFlux-Accum_NTAtm_LatLon0.15_PT210H.grib2 2026-04-29 16:40 250K
20260429T12Z_MSC_GDPS_DownwardShortwaveRadiationFlux-Accum_Sfc_LatLon0.15_PT210H.grib2 2026-04-29 16:40 893K
20260429T12Z_MSC_GDPS_FreezingRain-Accum12h_Sfc_LatLon0.15_PT210H.grib2 2026-04-29 16:40 78K
20260429T12Z_MSC_GDPS_FreezingRain-Accum24h_Sfc_LatLon0.15_PT210H.grib2 2026-04-29 16:40 135K
20260429T12Z_MSC_GDPS_FreezingRain-Accum6h_Sfc_LatLon0.15_PT210H.grib2 2026-04-29 16:40 56K
20260429T12Z_MSC_GDPS_FreezingRain-Accum_Sfc_LatLon0.15_PT210H.grib2 2026-04-29 16:40 464K
20260429T12Z_MSC_GDPS_GeopotentialHeight_IsbL-0001_LatLon0.15_PT210H.grib2 2026-04-29 16:40 443K
20260429T12Z_MSC_GDPS_GeopotentialHeight_IsbL-0005_LatLon0.15_PT210H.grib2 2026-04-29 16:40 489K
20260429T12Z_MSC_GDPS_GeopotentialHeight_IsbL-0010_LatLon0.15_PT210H.grib2 2026-04-29 16:40 477K
20260429T12Z_MSC_GDPS_GeopotentialHeight_IsbL-0020_LatLon0.15_PT210H.grib2 2026-04-29 16:40 413K
20260429T12Z_MSC_GDPS_GeopotentialHeight_IsbL-0030_LatLon0.15_PT210H.grib2 2026-04-29 16:40 412K
20260429T12Z_MSC_GDPS_GeopotentialHeight_IsbL-0050_LatLon0.15_PT210H.grib2 2026-04-29 16:40 564K
20260429T12Z_MSC_GDPS_GeopotentialHeight_IsbL-0100_LatLon0.15_PT210H.grib2 2026-04-29 16:40 602K
20260429T12Z_MSC_GDPS_GeopotentialHeight_IsbL-0150_LatLon0.15_PT210H.grib2 2026-04-29 16:40 623K
20260429T12Z_MSC_GDPS_GeopotentialHeight_IsbL-0175_LatLon0.15_PT210H.grib2 2026-04-29 16:40 626K
20260429T12Z_MSC_GDPS_GeopotentialHeight_IsbL-0200_LatLon0.15_PT210H.grib2 2026-04-29 16:40 632K
20260429T12Z_MSC_GDPS_GeopotentialHeight_IsbL-0225_LatLon0.15_PT210H.grib2 2026-04-29 16:40 631K
20260429T12Z_MSC_GDPS_GeopotentialHeight_IsbL-0250_LatLon0.15_PT210H.grib2 2026-04-29 16:40 640K
20260429T12Z_MSC_GDPS_GeopotentialHeight_IsbL-0275_LatLon0.15_PT210H.grib2 2026-04-29 16:40 639K
20260429T12Z_MSC_GDPS_GeopotentialHeight_IsbL-0300_LatLon0.15_PT210H.grib2 2026-04-29 16:40 631K
20260429T12Z_MSC_GDPS_GeopotentialHeight_IsbL-0350_LatLon0.15_PT210H.grib2 2026-04-29 16:40 629K
20260429T12Z_MSC_GDPS_GeopotentialHeight_IsbL-0400_LatLon0.15_PT210H.grib2 2026-04-29 16:40 621K
20260429T12Z_MSC_GDPS_GeopotentialHeight_IsbL-0450_LatLon0.15_PT210H.grib2 2026-04-29 16:40 612K
20260429T12Z_MSC_GDPS_GeopotentialHeight_IsbL-0500_LatLon0.15_PT210H.grib2 2026-04-29 16:40 532K
20260429T12Z_MSC_GDPS_GeopotentialHeight_IsbL-0550_LatLon0.15_PT210H.grib2 2026-04-29 16:40 523K
20260429T12Z_MSC_GDPS_GeopotentialHeight_IsbL-0600_LatLon0.15_PT210H.grib2 2026-04-29 16:40 520K
20260429T12Z_MSC_GDPS_GeopotentialHeight_IsbL-0650_LatLon0.15_PT210H.grib2 2026-04-29 16:40 687K
20260429T12Z_MSC_GDPS_GeopotentialHeight_IsbL-0700_LatLon0.15_PT210H.grib2 2026-04-29 16:40 684K
20260429T12Z_MSC_GDPS_GeopotentialHeight_IsbL-0750_LatLon0.15_PT210H.grib2 2026-04-29 16:40 689K
20260429T12Z_MSC_GDPS_GeopotentialHeight_IsbL-0800_LatLon0.15_PT210H.grib2 2026-04-29 16:40 704K
20260429T12Z_MSC_GDPS_GeopotentialHeight_IsbL-0850_LatLon0.15_PT210H.grib2 2026-04-29 16:40 711K
20260429T12Z_MSC_GDPS_GeopotentialHeight_IsbL-0875_LatLon0.15_PT210H.grib2 2026-04-29 16:40 719K
20260429T12Z_MSC_GDPS_GeopotentialHeight_IsbL-0900_LatLon0.15_PT210H.grib2 2026-04-29 16:40 725K
20260429T12Z_MSC_GDPS_GeopotentialHeight_IsbL-0925_LatLon0.15_PT210H.grib2 2026-04-29 16:40 733K
20260429T12Z_MSC_GDPS_GeopotentialHeight_IsbL-0950_LatLon0.15_PT210H.grib2 2026-04-29 16:40 740K
20260429T12Z_MSC_GDPS_GeopotentialHeight_IsbL-0970_LatLon0.15_PT210H.grib2 2026-04-29 16:40 750K
20260429T12Z_MSC_GDPS_GeopotentialHeight_IsbL-0985_LatLon0.15_PT210H.grib2 2026-04-29 16:40 765K
20260429T12Z_MSC_GDPS_GeopotentialHeight_IsbL-1000_LatLon0.15_PT210H.grib2 2026-04-29 16:40 786K
20260429T12Z_MSC_GDPS_GeopotentialHeight_IsbL-1015_LatLon0.15_PT210H.grib2 2026-04-29 16:40 808K
20260429T12Z_MSC_GDPS_Humidex_Sfc_LatLon0.15_PT210H.grib2 2026-04-29 16:40 5.3M
20260429T12Z_MSC_GDPS_IcePellets-Accum12h_Sfc_LatLon0.15_PT210H.grib2 2026-04-29 16:40 31K
20260429T12Z_MSC_GDPS_IcePellets-Accum24h_Sfc_LatLon0.15_PT210H.grib2 2026-04-29 16:40 49K
20260429T12Z_MSC_GDPS_IcePellets-Accum6h_Sfc_LatLon0.15_PT210H.grib2 2026-04-29 16:40 24K
20260429T12Z_MSC_GDPS_IcePellets-Accum_Sfc_LatLon0.15_PT210H.grib2 2026-04-29 16:40 151K
20260429T12Z_MSC_GDPS_KIndex_Sfc_LatLon0.15_PT210H.grib2 2026-04-29 16:40 6.5M
20260429T12Z_MSC_GDPS_LatentHeatNetFlux_Sfc_LatLon0.15_PT210H.grib2 2026-04-29 16:40 546K
20260429T12Z_MSC_GDPS_LiftedIndex-MU-VT_IsbL-0500_LatLon0.15_PT210H.grib2 2026-04-29 16:40 5.4M
20260429T12Z_MSC_GDPS_NetLongwaveRadiationFlux-Accum_Sfc_LatLon0.15_PT210H.grib2 2026-04-29 16:40 909K
20260429T12Z_MSC_GDPS_NetShortwaveRadiationFlux-Accum_Sfc_LatLon0.15_PT210H.grib2 2026-04-29 16:40 872K
20260429T12Z_MSC_GDPS_O3MixingRatio_Sfc_LatLon0.15_PT210H.grib2 2026-04-29 16:52 1.9M
20260429T12Z_MSC_GDPS_O3_EAtm_LatLon0.15_PT210H.grib2 2026-04-29 16:52 2.4M
20260429T12Z_MSC_GDPS_PlanetaryBoundaryLayerHeight_Sfc_LatLon0.15_PT210H.grib2 2026-04-29 16:40 2.5M
20260429T12Z_MSC_GDPS_Precip-Accum12h_Sfc_LatLon0.15_PT210H.grib2 2026-04-29 16:40 4.1M
20260429T12Z_MSC_GDPS_Precip-Accum24h_Sfc_LatLon0.15_PT210H.grib2 2026-04-29 16:40 4.6M
20260429T12Z_MSC_GDPS_Precip-Accum6h_Sfc_LatLon0.15_PT210H.grib2 2026-04-29 16:40 3.8M
20260429T12Z_MSC_GDPS_Precip-Accum_Sfc_LatLon0.15_PT210H.grib2 2026-04-29 16:40 5.5M
20260429T12Z_MSC_GDPS_PrecipRate_Sfc_LatLon0.15_PT210H.grib2 2026-04-29 16:40 3.0M
20260429T12Z_MSC_GDPS_PrecipType-Instant_Sfc_LatLon0.15_PT210H.grib2 2026-04-29 16:40 1.5M
20260429T12Z_MSC_GDPS_Pressure_MSL_LatLon0.15_PT210H.grib2 2026-04-29 16:40 827K
20260429T12Z_MSC_GDPS_Pressure_PVU-1.5_LatLon0.15_PT210H.grib2 2026-04-29 16:40 5.8M
20260429T12Z_MSC_GDPS_Pressure_PVU-1_LatLon0.15_PT210H.grib2 2026-04-29 16:40 6.0M
20260429T12Z_MSC_GDPS_Pressure_PVU-2_LatLon0.15_PT210H.grib2 2026-04-29 16:40 5.6M
20260429T12Z_MSC_GDPS_Pressure_Sfc_LatLon0.15_PT210H.grib2 2026-04-29 16:40 1.1M
20260429T12Z_MSC_GDPS_RadiativeTemp_Sfc_LatLon0.15_PT210H.grib2 2026-04-29 16:40 674K
20260429T12Z_MSC_GDPS_Rain-Accum12h_Sfc_LatLon0.15_PT210H.grib2 2026-04-29 16:40 2.8M
20260429T12Z_MSC_GDPS_Rain-Accum24h_Sfc_LatLon0.15_PT210H.grib2 2026-04-29 16:40 3.3M
20260429T12Z_MSC_GDPS_Rain-Accum6h_Sfc_LatLon0.15_PT210H.grib2 2026-04-29 16:40 2.5M
20260429T12Z_MSC_GDPS_Rain-Accum_Sfc_LatLon0.15_PT210H.grib2 2026-04-29 16:40 4.3M
20260429T12Z_MSC_GDPS_RelativeHumidity_AGL-2m_LatLon0.15_PT210H.grib2 2026-04-29 16:40 1.0M
20260429T12Z_MSC_GDPS_RelativeHumidity_IsbL-0010_LatLon0.15_PT210H.grib2 2026-04-29 16:40 193K
20260429T12Z_MSC_GDPS_RelativeHumidity_IsbL-0020_LatLon0.15_PT210H.grib2 2026-04-29 16:40 160K
20260429T12Z_MSC_GDPS_RelativeHumidity_IsbL-0030_LatLon0.15_PT210H.grib2 2026-04-29 16:40 182K
20260429T12Z_MSC_GDPS_RelativeHumidity_IsbL-0050_LatLon0.15_PT210H.grib2 2026-04-29 16:40 332K
20260429T12Z_MSC_GDPS_RelativeHumidity_IsbL-0100_LatLon0.15_PT210H.grib2 2026-04-29 16:40 493K
20260429T12Z_MSC_GDPS_RelativeHumidity_IsbL-0150_LatLon0.15_PT210H.grib2 2026-04-29 16:40 669K
20260429T12Z_MSC_GDPS_RelativeHumidity_IsbL-0175_LatLon0.15_PT210H.grib2 2026-04-29 16:40 605K
20260429T12Z_MSC_GDPS_RelativeHumidity_IsbL-0200_LatLon0.15_PT210H.grib2 2026-04-29 16:40 708K
20260429T12Z_MSC_GDPS_RelativeHumidity_IsbL-0225_LatLon0.15_PT210H.grib2 2026-04-29 16:40 787K
20260429T12Z_MSC_GDPS_RelativeHumidity_IsbL-0250_LatLon0.15_PT210H.grib2 2026-04-29 16:40 862K
20260429T12Z_MSC_GDPS_RelativeHumidity_IsbL-0275_LatLon0.15_PT210H.grib2 2026-04-29 16:40 888K
20260429T12Z_MSC_GDPS_RelativeHumidity_IsbL-0300_LatLon0.15_PT210H.grib2 2026-04-29 16:40 931K
20260429T12Z_MSC_GDPS_RelativeHumidity_IsbL-0350_LatLon0.15_PT210H.grib2 2026-04-29 16:40 951K
20260429T12Z_MSC_GDPS_RelativeHumidity_IsbL-0400_LatLon0.15_PT210H.grib2 2026-04-29 16:40 972K
20260429T12Z_MSC_GDPS_RelativeHumidity_IsbL-0450_LatLon0.15_PT210H.grib2 2026-04-29 16:40 1.0M
20260429T12Z_MSC_GDPS_RelativeHumidity_IsbL-0500_LatLon0.15_PT210H.grib2 2026-04-29 16:40 1.0M
20260429T12Z_MSC_GDPS_RelativeHumidity_IsbL-0550_LatLon0.15_PT210H.grib2 2026-04-29 16:40 1.0M
20260429T12Z_MSC_GDPS_RelativeHumidity_IsbL-0600_LatLon0.15_PT210H.grib2 2026-04-29 16:40 1.0M
20260429T12Z_MSC_GDPS_RelativeHumidity_IsbL-0650_LatLon0.15_PT210H.grib2 2026-04-29 16:40 1.1M
20260429T12Z_MSC_GDPS_RelativeHumidity_IsbL-0700_LatLon0.15_PT210H.grib2 2026-04-29 16:40 1.1M
20260429T12Z_MSC_GDPS_RelativeHumidity_IsbL-0750_LatLon0.15_PT210H.grib2 2026-04-29 16:40 1.2M
20260429T12Z_MSC_GDPS_RelativeHumidity_IsbL-0800_LatLon0.15_PT210H.grib2 2026-04-29 16:40 1.2M
20260429T12Z_MSC_GDPS_RelativeHumidity_IsbL-0850_LatLon0.15_PT210H.grib2 2026-04-29 16:40 1.3M
20260429T12Z_MSC_GDPS_RelativeHumidity_IsbL-0875_LatLon0.15_PT210H.grib2 2026-04-29 16:40 1.3M
20260429T12Z_MSC_GDPS_RelativeHumidity_IsbL-0900_LatLon0.15_PT210H.grib2 2026-04-29 16:40 1.3M
20260429T12Z_MSC_GDPS_RelativeHumidity_IsbL-0925_LatLon0.15_PT210H.grib2 2026-04-29 16:40 1.2M
20260429T12Z_MSC_GDPS_RelativeHumidity_IsbL-0950_LatLon0.15_PT210H.grib2 2026-04-29 16:40 1.2M
20260429T12Z_MSC_GDPS_RelativeHumidity_IsbL-0970_LatLon0.15_PT210H.grib2 2026-04-29 16:40 1.2M
20260429T12Z_MSC_GDPS_RelativeHumidity_IsbL-0985_LatLon0.15_PT210H.grib2 2026-04-29 16:40 1.2M
20260429T12Z_MSC_GDPS_RelativeHumidity_IsbL-1000_LatLon0.15_PT210H.grib2 2026-04-29 16:40 1.1M
20260429T12Z_MSC_GDPS_RelativeHumidity_IsbL-1015_LatLon0.15_PT210H.grib2 2026-04-29 16:40 1.1M
20260429T12Z_MSC_GDPS_RelativeVorticity_IsbL-0200_LatLon0.15_PT210H.grib2 2026-04-29 16:40 1.2M
20260429T12Z_MSC_GDPS_RelativeVorticity_IsbL-0250_LatLon0.15_PT210H.grib2 2026-04-29 16:40 1.3M
20260429T12Z_MSC_GDPS_RelativeVorticity_IsbL-0500_LatLon0.15_PT210H.grib2 2026-04-29 16:40 1.2M
20260429T12Z_MSC_GDPS_RelativeVorticity_IsbL-0700_LatLon0.15_PT210H.grib2 2026-04-29 16:40 1.3M
20260429T12Z_MSC_GDPS_RelativeVorticity_IsbL-0850_LatLon0.15_PT210H.grib2 2026-04-29 16:40 1.6M
20260429T12Z_MSC_GDPS_Runoff-Accum_Sfc_LatLon0.15_PT210H.grib2 2026-04-29 16:40 134K
20260429T12Z_MSC_GDPS_SensibleHeatNetFlux_Sfc_LatLon0.15_PT210H.grib2 2026-04-29 16:40 493K
20260429T12Z_MSC_GDPS_ShowalterIndex_IsbL-0500_LatLon0.15_PT210H.grib2 2026-04-29 16:40 6.2M
20260429T12Z_MSC_GDPS_Snow-Accum12h_Sfc_LatLon0.15_PT210H.grib2 2026-04-29 16:40 1.4M
20260429T12Z_MSC_GDPS_Snow-Accum24h_Sfc_LatLon0.15_PT210H.grib2 2026-04-29 16:40 1.6M
20260429T12Z_MSC_GDPS_Snow-Accum6h_Sfc_LatLon0.15_PT210H.grib2 2026-04-29 16:40 1.2M
20260429T12Z_MSC_GDPS_Snow-Accum_Sfc_LatLon0.15_PT210H.grib2 2026-04-29 16:40 2.2M
20260429T12Z_MSC_GDPS_SnowDensity_Sfc_LatLon0.15_PT210H.grib2 2026-04-29 16:40 262K
20260429T12Z_MSC_GDPS_SnowDepth_Sfc_LatLon0.15_PT210H.grib2 2026-04-29 16:40 1.7M
20260429T12Z_MSC_GDPS_SoilTemp_DBS-0to10cm_LatLon0.15_PT210H.grib2 2026-04-29 16:40 514K
20260429T12Z_MSC_GDPS_SoilTemp_Sfc_LatLon0.15_PT210H.grib2 2026-04-29 16:40 583K
20260429T12Z_MSC_GDPS_SoilVolumetricIceContent_Sfc_LatLon0.15_PT210H.grib2 2026-04-29 16:40 184K
20260429T12Z_MSC_GDPS_SoilVolumetricWaterContent_DBS-0to10cm_LatLon0.15_PT210H.grib2 2026-04-29 16:40 594K
20260429T12Z_MSC_GDPS_SoilVolumetricWaterContent_DBS-0to1cm_LatLon0.15_PT210H.grib2 2026-04-29 16:40 652K
20260429T12Z_MSC_GDPS_SpecificHumidity_AGL-120m_LatLon0.15_PT210H.grib2 2026-04-29 16:40 1.1M
20260429T12Z_MSC_GDPS_SpecificHumidity_AGL-2m_LatLon0.15_PT210H.grib2 2026-04-29 16:40 1.2M
20260429T12Z_MSC_GDPS_SpecificHumidity_AGL-40m_LatLon0.15_PT210H.grib2 2026-04-29 16:40 1.1M
20260429T12Z_MSC_GDPS_SpecificHumidity_AGL-80m_LatLon0.15_PT210H.grib2 2026-04-29 16:40 1.1M
20260429T12Z_MSC_GDPS_SpecificHumidity_IsbL-0001_LatLon0.15_PT210H.grib2 2026-04-29 16:40 1.1M
20260429T12Z_MSC_GDPS_SpecificHumidity_IsbL-0005_LatLon0.15_PT210H.grib2 2026-04-29 16:40 1.0M
20260429T12Z_MSC_GDPS_SpecificHumidity_IsbL-0010_LatLon0.15_PT210H.grib2 2026-04-29 16:40 1.1M
20260429T12Z_MSC_GDPS_SpecificHumidity_IsbL-0020_LatLon0.15_PT210H.grib2 2026-04-29 16:40 1.2M
20260429T12Z_MSC_GDPS_SpecificHumidity_IsbL-0030_LatLon0.15_PT210H.grib2 2026-04-29 16:40 1.4M
20260429T12Z_MSC_GDPS_SpecificHumidity_IsbL-0050_LatLon0.15_PT210H.grib2 2026-04-29 16:40 1.5M
20260429T12Z_MSC_GDPS_SpecificHumidity_IsbL-0100_LatLon0.15_PT210H.grib2 2026-04-29 16:40 1.2M
20260429T12Z_MSC_GDPS_SpecificHumidity_IsbL-0150_LatLon0.15_PT210H.grib2 2026-04-29 16:40 1.3M
20260429T12Z_MSC_GDPS_SpecificHumidity_IsbL-0175_LatLon0.15_PT210H.grib2 2026-04-29 16:40 1.3M
20260429T12Z_MSC_GDPS_SpecificHumidity_IsbL-0200_LatLon0.15_PT210H.grib2 2026-04-29 16:40 1.3M
20260429T12Z_MSC_GDPS_SpecificHumidity_IsbL-0225_LatLon0.15_PT210H.grib2 2026-04-29 16:40 1.3M
20260429T12Z_MSC_GDPS_SpecificHumidity_IsbL-0250_LatLon0.15_PT210H.grib2 2026-04-29 16:40 1.2M
20260429T12Z_MSC_GDPS_SpecificHumidity_IsbL-0275_LatLon0.15_PT210H.grib2 2026-04-29 16:40 1.3M
20260429T12Z_MSC_GDPS_SpecificHumidity_IsbL-0300_LatLon0.15_PT210H.grib2 2026-04-29 16:40 1.2M
20260429T12Z_MSC_GDPS_SpecificHumidity_IsbL-0350_LatLon0.15_PT210H.grib2 2026-04-29 16:40 1.2M
20260429T12Z_MSC_GDPS_SpecificHumidity_IsbL-0400_LatLon0.15_PT210H.grib2 2026-04-29 16:40 1.4M
20260429T12Z_MSC_GDPS_SpecificHumidity_IsbL-0450_LatLon0.15_PT210H.grib2 2026-04-29 16:40 1.3M
20260429T12Z_MSC_GDPS_SpecificHumidity_IsbL-0500_LatLon0.15_PT210H.grib2 2026-04-29 16:40 1.5M
20260429T12Z_MSC_GDPS_SpecificHumidity_IsbL-0550_LatLon0.15_PT210H.grib2 2026-04-29 16:40 1.6M
20260429T12Z_MSC_GDPS_SpecificHumidity_IsbL-0600_LatLon0.15_PT210H.grib2 2026-04-29 16:40 1.4M
20260429T12Z_MSC_GDPS_SpecificHumidity_IsbL-0650_LatLon0.15_PT210H.grib2 2026-04-29 16:40 1.5M
20260429T12Z_MSC_GDPS_SpecificHumidity_IsbL-0700_LatLon0.15_PT210H.grib2 2026-04-29 16:40 1.6M
20260429T12Z_MSC_GDPS_SpecificHumidity_IsbL-0750_LatLon0.15_PT210H.grib2 2026-04-29 16:40 1.7M
20260429T12Z_MSC_GDPS_SpecificHumidity_IsbL-0800_LatLon0.15_PT210H.grib2 2026-04-29 16:40 1.9M
20260429T12Z_MSC_GDPS_SpecificHumidity_IsbL-0850_LatLon0.15_PT210H.grib2 2026-04-29 16:40 2.0M
20260429T12Z_MSC_GDPS_SpecificHumidity_IsbL-0875_LatLon0.15_PT210H.grib2 2026-04-29 16:40 2.0M
20260429T12Z_MSC_GDPS_SpecificHumidity_IsbL-0900_LatLon0.15_PT210H.grib2 2026-04-29 16:40 1.6M
20260429T12Z_MSC_GDPS_SpecificHumidity_IsbL-0925_LatLon0.15_PT210H.grib2 2026-04-29 16:40 1.6M
20260429T12Z_MSC_GDPS_SpecificHumidity_IsbL-0950_LatLon0.15_PT210H.grib2 2026-04-29 16:40 1.6M
20260429T12Z_MSC_GDPS_SpecificHumidity_IsbL-0970_LatLon0.15_PT210H.grib2 2026-04-29 16:40 1.6M
20260429T12Z_MSC_GDPS_SpecificHumidity_IsbL-0985_LatLon0.15_PT210H.grib2 2026-04-29 16:40 1.5M
20260429T12Z_MSC_GDPS_SpecificHumidity_IsbL-1000_LatLon0.15_PT210H.grib2 2026-04-29 16:40 1.5M
20260429T12Z_MSC_GDPS_SpecificHumidity_IsbL-1015_LatLon0.15_PT210H.grib2 2026-04-29 16:40 1.5M
20260429T12Z_MSC_GDPS_SpecificHumidity_Sfc_LatLon0.15_PT210H.grib2 2026-04-29 16:40 680K
20260429T12Z_MSC_GDPS_Thickness_IsbL-0850to0700_LatLon0.15_PT210H.grib2 2026-04-29 16:40 468K
20260429T12Z_MSC_GDPS_Thickness_IsbL-1000to0500_LatLon0.15_PT210H.grib2 2026-04-29 16:40 370K
20260429T12Z_MSC_GDPS_Thickness_IsbL-1000to0850_LatLon0.15_PT210H.grib2 2026-04-29 16:40 489K
20260429T12Z_MSC_GDPS_TotalCloudCover_Sfc_LatLon0.15_PT210H.grib2 2026-04-29 16:40 839K
20260429T12Z_MSC_GDPS_TotalTotalsIndex_Sfc_LatLon0.15_PT210H.grib2 2026-04-29 16:40 6.2M
20260429T12Z_MSC_GDPS_UVIndex-ClearSky_Sfc_LatLon0.15_PT210H.grib2 2026-04-29 16:52 1.1M
20260429T12Z_MSC_GDPS_UVIndex_Sfc_LatLon0.15_PT210H.grib2 2026-04-29 16:52 1.5M
20260429T12Z_MSC_GDPS_UpwardLongwaveRadiationFlux_NTAtm_LatLon0.15_PT210H.grib2 2026-04-29 16:40 834K
20260429T12Z_MSC_GDPS_VerticalVelocity_IsbL-0200_LatLon0.15_PT210H.grib2 2026-04-29 16:40 928K
20260429T12Z_MSC_GDPS_VerticalVelocity_IsbL-0250_LatLon0.15_PT210H.grib2 2026-04-29 16:40 1.0M
20260429T12Z_MSC_GDPS_VerticalVelocity_IsbL-0500_LatLon0.15_PT210H.grib2 2026-04-29 16:40 1.0M
20260429T12Z_MSC_GDPS_VerticalVelocity_IsbL-0600_LatLon0.15_PT210H.grib2 2026-04-29 16:40 1.1M
20260429T12Z_MSC_GDPS_VerticalVelocity_IsbL-0700_LatLon0.15_PT210H.grib2 2026-04-29 16:40 1.4M
20260429T12Z_MSC_GDPS_VerticalVelocity_IsbL-0850_LatLon0.15_PT210H.grib2 2026-04-29 16:40 1.6M
20260429T12Z_MSC_GDPS_WindChill_Sfc_LatLon0.15_PT210H.grib2 2026-04-29 16:40 5.3M
20260429T12Z_MSC_GDPS_WindDir_AGL-10m_LatLon0.15_PT210H.grib2 2026-04-29 16:40 1.3M
20260429T12Z_MSC_GDPS_WindDir_AGL-120m_LatLon0.15_PT210H.grib2 2026-04-29 16:40 1.3M
20260429T12Z_MSC_GDPS_WindDir_AGL-40m_LatLon0.15_PT210H.grib2 2026-04-29 16:40 1.4M
20260429T12Z_MSC_GDPS_WindDir_AGL-80m_LatLon0.15_PT210H.grib2 2026-04-29 16:40 1.3M
20260429T12Z_MSC_GDPS_WindDir_IsbL-0001_LatLon0.15_PT210H.grib2 2026-04-29 16:40 662K
20260429T12Z_MSC_GDPS_WindDir_IsbL-0005_LatLon0.15_PT210H.grib2 2026-04-29 16:40 829K
20260429T12Z_MSC_GDPS_WindDir_IsbL-0010_LatLon0.15_PT210H.grib2 2026-04-29 16:40 837K
20260429T12Z_MSC_GDPS_WindDir_IsbL-0020_LatLon0.15_PT210H.grib2 2026-04-29 16:40 929K
20260429T12Z_MSC_GDPS_WindDir_IsbL-0030_LatLon0.15_PT210H.grib2 2026-04-29 16:40 942K
20260429T12Z_MSC_GDPS_WindDir_IsbL-0050_LatLon0.15_PT210H.grib2 2026-04-29 16:40 950K
20260429T12Z_MSC_GDPS_WindDir_IsbL-0100_LatLon0.15_PT210H.grib2 2026-04-29 16:40 1.0M
20260429T12Z_MSC_GDPS_WindDir_IsbL-0150_LatLon0.15_PT210H.grib2 2026-04-29 16:40 1.0M
20260429T12Z_MSC_GDPS_WindDir_IsbL-0175_LatLon0.15_PT210H.grib2 2026-04-29 16:40 1.0M
20260429T12Z_MSC_GDPS_WindDir_IsbL-0200_LatLon0.15_PT210H.grib2 2026-04-29 16:40 1.1M
20260429T12Z_MSC_GDPS_WindDir_IsbL-0225_LatLon0.15_PT210H.grib2 2026-04-29 16:40 1.1M
20260429T12Z_MSC_GDPS_WindDir_IsbL-0250_LatLon0.15_PT210H.grib2 2026-04-29 16:40 1.1M
20260429T12Z_MSC_GDPS_WindDir_IsbL-0275_LatLon0.15_PT210H.grib2 2026-04-29 16:40 1.2M
20260429T12Z_MSC_GDPS_WindDir_IsbL-0300_LatLon0.15_PT210H.grib2 2026-04-29 16:40 1.2M
20260429T12Z_MSC_GDPS_WindDir_IsbL-0350_LatLon0.15_PT210H.grib2 2026-04-29 16:40 1.2M
20260429T12Z_MSC_GDPS_WindDir_IsbL-0400_LatLon0.15_PT210H.grib2 2026-04-29 16:40 1.3M
20260429T12Z_MSC_GDPS_WindDir_IsbL-0450_LatLon0.15_PT210H.grib2 2026-04-29 16:40 1.3M
20260429T12Z_MSC_GDPS_WindDir_IsbL-0500_LatLon0.15_PT210H.grib2 2026-04-29 16:40 1.4M
20260429T12Z_MSC_GDPS_WindDir_IsbL-0550_LatLon0.15_PT210H.grib2 2026-04-29 16:40 1.4M
20260429T12Z_MSC_GDPS_WindDir_IsbL-0600_LatLon0.15_PT210H.grib2 2026-04-29 16:40 1.4M
20260429T12Z_MSC_GDPS_WindDir_IsbL-0650_LatLon0.15_PT210H.grib2 2026-04-29 16:40 1.5M
20260429T12Z_MSC_GDPS_WindDir_IsbL-0700_LatLon0.15_PT210H.grib2 2026-04-29 16:40 1.6M
20260429T12Z_MSC_GDPS_WindDir_IsbL-0750_LatLon0.15_PT210H.grib2 2026-04-29 16:40 1.7M
20260429T12Z_MSC_GDPS_WindDir_IsbL-0800_LatLon0.15_PT210H.grib2 2026-04-29 16:40 1.8M
20260429T12Z_MSC_GDPS_WindDir_IsbL-0850_LatLon0.15_PT210H.grib2 2026-04-29 16:40 1.9M
20260429T12Z_MSC_GDPS_WindDir_IsbL-0875_LatLon0.15_PT210H.grib2 2026-04-29 16:40 1.9M
20260429T12Z_MSC_GDPS_WindDir_IsbL-0900_LatLon0.15_PT210H.grib2 2026-04-29 16:40 1.9M
20260429T12Z_MSC_GDPS_WindDir_IsbL-0925_LatLon0.15_PT210H.grib2 2026-04-29 16:40 1.9M
20260429T12Z_MSC_GDPS_WindDir_IsbL-0950_LatLon0.15_PT210H.grib2 2026-04-29 16:40 1.9M
20260429T12Z_MSC_GDPS_WindDir_IsbL-0970_LatLon0.15_PT210H.grib2 2026-04-29 16:40 2.0M
20260429T12Z_MSC_GDPS_WindDir_IsbL-0985_LatLon0.15_PT210H.grib2 2026-04-29 16:40 2.0M
20260429T12Z_MSC_GDPS_WindDir_IsbL-1000_LatLon0.15_PT210H.grib2 2026-04-29 16:40 2.0M
20260429T12Z_MSC_GDPS_WindDir_IsbL-1015_LatLon0.15_PT210H.grib2 2026-04-29 16:40 2.0M
20260429T12Z_MSC_GDPS_WindGust-Max_AGL-10m_LatLon0.15_PT210H.grib2 2026-04-29 16:40 2.2M
20260429T12Z_MSC_GDPS_WindGust-Min_AGL-10m_LatLon0.15_PT210H.grib2 2026-04-29 16:40 2.2M
20260429T12Z_MSC_GDPS_WindGust_AGL-10m_LatLon0.15_PT210H.grib2 2026-04-29 16:40 2.2M
20260429T12Z_MSC_GDPS_WindSpeed_AGL-10m_LatLon0.15_PT210H.grib2 2026-04-29 16:40 1.1M
20260429T12Z_MSC_GDPS_WindSpeed_AGL-120m_LatLon0.15_PT210H.grib2 2026-04-29 16:40 1.2M
20260429T12Z_MSC_GDPS_WindSpeed_AGL-40m_LatLon0.15_PT210H.grib2 2026-04-29 16:40 1.2M
20260429T12Z_MSC_GDPS_WindSpeed_AGL-80m_LatLon0.15_PT210H.grib2 2026-04-29 16:40 1.2M
20260429T12Z_MSC_GDPS_WindSpeed_IsbL-0001_LatLon0.15_PT210H.grib2 2026-04-29 16:40 650K
20260429T12Z_MSC_GDPS_WindSpeed_IsbL-0005_LatLon0.15_PT210H.grib2 2026-04-29 16:40 692K
20260429T12Z_MSC_GDPS_WindSpeed_IsbL-0010_LatLon0.15_PT210H.grib2 2026-04-29 16:40 703K
20260429T12Z_MSC_GDPS_WindSpeed_IsbL-0020_LatLon0.15_PT210H.grib2 2026-04-29 16:40 660K
20260429T12Z_MSC_GDPS_WindSpeed_IsbL-0030_LatLon0.15_PT210H.grib2 2026-04-29 16:40 857K
20260429T12Z_MSC_GDPS_WindSpeed_IsbL-0050_LatLon0.15_PT210H.grib2 2026-04-29 16:40 896K
20260429T12Z_MSC_GDPS_WindSpeed_IsbL-0100_LatLon0.15_PT210H.grib2 2026-04-29 16:40 1.1M
20260429T12Z_MSC_GDPS_WindSpeed_IsbL-0150_LatLon0.15_PT210H.grib2 2026-04-29 16:40 931K
20260429T12Z_MSC_GDPS_WindSpeed_IsbL-0175_LatLon0.15_PT210H.grib2 2026-04-29 16:40 1.0M
20260429T12Z_MSC_GDPS_WindSpeed_IsbL-0200_LatLon0.15_PT210H.grib2 2026-04-29 16:40 1.0M
20260429T12Z_MSC_GDPS_WindSpeed_IsbL-0225_LatLon0.15_PT210H.grib2 2026-04-29 16:40 1.1M
20260429T12Z_MSC_GDPS_WindSpeed_IsbL-0250_LatLon0.15_PT210H.grib2 2026-04-29 16:40 1.1M
20260429T12Z_MSC_GDPS_WindSpeed_IsbL-0275_LatLon0.15_PT210H.grib2 2026-04-29 16:40 1.1M
20260429T12Z_MSC_GDPS_WindSpeed_IsbL-0300_LatLon0.15_PT210H.grib2 2026-04-29 16:40 1.1M
20260429T12Z_MSC_GDPS_WindSpeed_IsbL-0350_LatLon0.15_PT210H.grib2 2026-04-29 16:40 1.1M
20260429T12Z_MSC_GDPS_WindSpeed_IsbL-0400_LatLon0.15_PT210H.grib2 2026-04-29 16:40 1.1M
20260429T12Z_MSC_GDPS_WindSpeed_IsbL-0450_LatLon0.15_PT210H.grib2 2026-04-29 16:40 1.1M
20260429T12Z_MSC_GDPS_WindSpeed_IsbL-0500_LatLon0.15_PT210H.grib2 2026-04-29 16:40 1.1M
20260429T12Z_MSC_GDPS_WindSpeed_IsbL-0550_LatLon0.15_PT210H.grib2 2026-04-29 16:40 1.1M
20260429T12Z_MSC_GDPS_WindSpeed_IsbL-0600_LatLon0.15_PT210H.grib2 2026-04-29 16:40 1.4M
20260429T12Z_MSC_GDPS_WindSpeed_IsbL-0650_LatLon0.15_PT210H.grib2 2026-04-29 16:40 1.4M
20260429T12Z_MSC_GDPS_WindSpeed_IsbL-0700_LatLon0.15_PT210H.grib2 2026-04-29 16:40 1.5M
20260429T12Z_MSC_GDPS_WindSpeed_IsbL-0750_LatLon0.15_PT210H.grib2 2026-04-29 16:40 1.5M
20260429T12Z_MSC_GDPS_WindSpeed_IsbL-0800_LatLon0.15_PT210H.grib2 2026-04-29 16:40 1.6M
20260429T12Z_MSC_GDPS_WindSpeed_IsbL-0850_LatLon0.15_PT210H.grib2 2026-04-29 16:40 1.7M
20260429T12Z_MSC_GDPS_WindSpeed_IsbL-0875_LatLon0.15_PT210H.grib2 2026-04-29 16:40 1.8M
20260429T12Z_MSC_GDPS_WindSpeed_IsbL-0900_LatLon0.15_PT210H.grib2 2026-04-29 16:40 1.8M
20260429T12Z_MSC_GDPS_WindSpeed_IsbL-0925_LatLon0.15_PT210H.grib2 2026-04-29 16:40 1.8M
20260429T12Z_MSC_GDPS_WindSpeed_IsbL-0950_LatLon0.15_PT210H.grib2 2026-04-29 16:40 1.9M
20260429T12Z_MSC_GDPS_WindSpeed_IsbL-0970_LatLon0.15_PT210H.grib2 2026-04-29 16:40 1.9M
20260429T12Z_MSC_GDPS_WindSpeed_IsbL-0985_LatLon0.15_PT210H.grib2 2026-04-29 16:40 1.8M
20260429T12Z_MSC_GDPS_WindSpeed_IsbL-1000_LatLon0.15_PT210H.grib2 2026-04-29 16:40 1.8M
20260429T12Z_MSC_GDPS_WindSpeed_IsbL-1015_LatLon0.15_PT210H.grib2 2026-04-29 16:40 1.8M
20260429T12Z_MSC_GDPS_WindU_AGL-10m_LatLon0.15_PT210H.grib2 2026-04-29 16:40 1.3M
20260429T12Z_MSC_GDPS_WindU_AGL-120m_LatLon0.15_PT210H.grib2 2026-04-29 16:40 1.0M
20260429T12Z_MSC_GDPS_WindU_AGL-40m_LatLon0.15_PT210H.grib2 2026-04-29 16:40 963K
20260429T12Z_MSC_GDPS_WindU_AGL-80m_LatLon0.15_PT210H.grib2 2026-04-29 16:40 1.0M
20260429T12Z_MSC_GDPS_WindU_IsbL-0001_LatLon0.15_PT210H.grib2 2026-04-29 16:40 507K
20260429T12Z_MSC_GDPS_WindU_IsbL-0005_LatLon0.15_PT210H.grib2 2026-04-29 16:40 691K
20260429T12Z_MSC_GDPS_WindU_IsbL-0010_LatLon0.15_PT210H.grib2 2026-04-29 16:40 699K
20260429T12Z_MSC_GDPS_WindU_IsbL-0020_LatLon0.15_PT210H.grib2 2026-04-29 16:40 728K
20260429T12Z_MSC_GDPS_WindU_IsbL-0030_LatLon0.15_PT210H.grib2 2026-04-29 16:40 734K
20260429T12Z_MSC_GDPS_WindU_IsbL-0050_LatLon0.15_PT210H.grib2 2026-04-29 16:40 761K
20260429T12Z_MSC_GDPS_WindU_IsbL-0100_LatLon0.15_PT210H.grib2 2026-04-29 16:40 856K
20260429T12Z_MSC_GDPS_WindU_IsbL-0150_LatLon0.15_PT210H.grib2 2026-04-29 16:40 1.0M
20260429T12Z_MSC_GDPS_WindU_IsbL-0175_LatLon0.15_PT210H.grib2 2026-04-29 16:40 1.0M
20260429T12Z_MSC_GDPS_WindU_IsbL-0200_LatLon0.15_PT210H.grib2 2026-04-29 16:40 1.0M
20260429T12Z_MSC_GDPS_WindU_IsbL-0225_LatLon0.15_PT210H.grib2 2026-04-29 16:40 1.0M
20260429T12Z_MSC_GDPS_WindU_IsbL-0250_LatLon0.15_PT210H.grib2 2026-04-29 16:40 845K
20260429T12Z_MSC_GDPS_WindU_IsbL-0275_LatLon0.15_PT210H.grib2 2026-04-29 16:40 875K
20260429T12Z_MSC_GDPS_WindU_IsbL-0300_LatLon0.15_PT210H.grib2 2026-04-29 16:40 869K
20260429T12Z_MSC_GDPS_WindU_IsbL-0350_LatLon0.15_PT210H.grib2 2026-04-29 16:40 887K
20260429T12Z_MSC_GDPS_WindU_IsbL-0400_LatLon0.15_PT210H.grib2 2026-04-29 16:40 1.1M
20260429T12Z_MSC_GDPS_WindU_IsbL-0450_LatLon0.15_PT210H.grib2 2026-04-29 16:40 1.1M
20260429T12Z_MSC_GDPS_WindU_IsbL-0500_LatLon0.15_PT210H.grib2 2026-04-29 16:40 1.1M
20260429T12Z_MSC_GDPS_WindU_IsbL-0550_LatLon0.15_PT210H.grib2 2026-04-29 16:40 1.1M
20260429T12Z_MSC_GDPS_WindU_IsbL-0600_LatLon0.15_PT210H.grib2 2026-04-29 16:40 1.1M
20260429T12Z_MSC_GDPS_WindU_IsbL-0650_LatLon0.15_PT210H.grib2 2026-04-29 16:40 1.2M
20260429T12Z_MSC_GDPS_WindU_IsbL-0700_LatLon0.15_PT210H.grib2 2026-04-29 16:40 1.2M
20260429T12Z_MSC_GDPS_WindU_IsbL-0750_LatLon0.15_PT210H.grib2 2026-04-29 16:40 1.3M
20260429T12Z_MSC_GDPS_WindU_IsbL-0800_LatLon0.15_PT210H.grib2 2026-04-29 16:40 1.3M
20260429T12Z_MSC_GDPS_WindU_IsbL-0850_LatLon0.15_PT210H.grib2 2026-04-29 16:40 1.4M
20260429T12Z_MSC_GDPS_WindU_IsbL-0875_LatLon0.15_PT210H.grib2 2026-04-29 16:40 1.5M
20260429T12Z_MSC_GDPS_WindU_IsbL-0900_LatLon0.15_PT210H.grib2 2026-04-29 16:40 1.5M
20260429T12Z_MSC_GDPS_WindU_IsbL-0925_LatLon0.15_PT210H.grib2 2026-04-29 16:40 1.5M
20260429T12Z_MSC_GDPS_WindU_IsbL-0950_LatLon0.15_PT210H.grib2 2026-04-29 16:40 1.4M
20260429T12Z_MSC_GDPS_WindU_IsbL-0970_LatLon0.15_PT210H.grib2 2026-04-29 16:40 1.4M
20260429T12Z_MSC_GDPS_WindU_IsbL-0985_LatLon0.15_PT210H.grib2 2026-04-29 16:40 1.4M
20260429T12Z_MSC_GDPS_WindU_IsbL-1000_LatLon0.15_PT210H.grib2 2026-04-29 16:40 1.4M
20260429T12Z_MSC_GDPS_WindU_IsbL-1015_LatLon0.15_PT210H.grib2 2026-04-29 16:40 1.3M
20260429T12Z_MSC_GDPS_WindV_AGL-10m_LatLon0.15_PT210H.grib2 2026-04-29 16:40 1.6M
20260429T12Z_MSC_GDPS_WindV_AGL-120m_LatLon0.15_PT210H.grib2 2026-04-29 16:40 966K
20260429T12Z_MSC_GDPS_WindV_AGL-40m_LatLon0.15_PT210H.grib2 2026-04-29 16:40 960K
20260429T12Z_MSC_GDPS_WindV_AGL-80m_LatLon0.15_PT210H.grib2 2026-04-29 16:40 966K
20260429T12Z_MSC_GDPS_WindV_IsbL-0001_LatLon0.15_PT210H.grib2 2026-04-29 16:40 563K
20260429T12Z_MSC_GDPS_WindV_IsbL-0005_LatLon0.15_PT210H.grib2 2026-04-29 16:40 858K
20260429T12Z_MSC_GDPS_WindV_IsbL-0010_LatLon0.15_PT210H.grib2 2026-04-29 16:40 883K
20260429T12Z_MSC_GDPS_WindV_IsbL-0020_LatLon0.15_PT210H.grib2 2026-04-29 16:40 928K
20260429T12Z_MSC_GDPS_WindV_IsbL-0030_LatLon0.15_PT210H.grib2 2026-04-29 16:40 934K
20260429T12Z_MSC_GDPS_WindV_IsbL-0050_LatLon0.15_PT210H.grib2 2026-04-29 16:40 1.0M
20260429T12Z_MSC_GDPS_WindV_IsbL-0100_LatLon0.15_PT210H.grib2 2026-04-29 16:40 1.0M
20260429T12Z_MSC_GDPS_WindV_IsbL-0150_LatLon0.15_PT210H.grib2 2026-04-29 16:40 1.0M
20260429T12Z_MSC_GDPS_WindV_IsbL-0175_LatLon0.15_PT210H.grib2 2026-04-29 16:40 1.0M
20260429T12Z_MSC_GDPS_WindV_IsbL-0200_LatLon0.15_PT210H.grib2 2026-04-29 16:40 827K
20260429T12Z_MSC_GDPS_WindV_IsbL-0225_LatLon0.15_PT210H.grib2 2026-04-29 16:40 840K
20260429T12Z_MSC_GDPS_WindV_IsbL-0250_LatLon0.15_PT210H.grib2 2026-04-29 16:40 901K
20260429T12Z_MSC_GDPS_WindV_IsbL-0275_LatLon0.15_PT210H.grib2 2026-04-29 16:40 928K
20260429T12Z_MSC_GDPS_WindV_IsbL-0300_LatLon0.15_PT210H.grib2 2026-04-29 16:40 921K
20260429T12Z_MSC_GDPS_WindV_IsbL-0350_LatLon0.15_PT210H.grib2 2026-04-29 16:40 878K
20260429T12Z_MSC_GDPS_WindV_IsbL-0400_LatLon0.15_PT210H.grib2 2026-04-29 16:40 880K
20260429T12Z_MSC_GDPS_WindV_IsbL-0450_LatLon0.15_PT210H.grib2 2026-04-29 16:40 882K
20260429T12Z_MSC_GDPS_WindV_IsbL-0500_LatLon0.15_PT210H.grib2 2026-04-29 16:40 1.1M
20260429T12Z_MSC_GDPS_WindV_IsbL-0550_LatLon0.15_PT210H.grib2 2026-04-29 16:40 1.1M
20260429T12Z_MSC_GDPS_WindV_IsbL-0600_LatLon0.15_PT210H.grib2 2026-04-29 16:40 1.1M
20260429T12Z_MSC_GDPS_WindV_IsbL-0650_LatLon0.15_PT210H.grib2 2026-04-29 16:40 1.2M
20260429T12Z_MSC_GDPS_WindV_IsbL-0700_LatLon0.15_PT210H.grib2 2026-04-29 16:40 1.2M
20260429T12Z_MSC_GDPS_WindV_IsbL-0750_LatLon0.15_PT210H.grib2 2026-04-29 16:40 1.3M
20260429T12Z_MSC_GDPS_WindV_IsbL-0800_LatLon0.15_PT210H.grib2 2026-04-29 16:40 1.3M
20260429T12Z_MSC_GDPS_WindV_IsbL-0850_LatLon0.15_PT210H.grib2 2026-04-29 16:40 1.4M
20260429T12Z_MSC_GDPS_WindV_IsbL-0875_LatLon0.15_PT210H.grib2 2026-04-29 16:40 1.4M
20260429T12Z_MSC_GDPS_WindV_IsbL-0900_LatLon0.15_PT210H.grib2 2026-04-29 16:40 1.4M
20260429T12Z_MSC_GDPS_WindV_IsbL-0925_LatLon0.15_PT210H.grib2 2026-04-29 16:40 1.4M
20260429T12Z_MSC_GDPS_WindV_IsbL-0950_LatLon0.15_PT210H.grib2 2026-04-29 16:40 1.4M
20260429T12Z_MSC_GDPS_WindV_IsbL-0970_LatLon0.15_PT210H.grib2 2026-04-29 16:40 1.4M
20260429T12Z_MSC_GDPS_WindV_IsbL-0985_LatLon0.15_PT210H.grib2 2026-04-29 16:40 1.4M
20260429T12Z_MSC_GDPS_WindV_IsbL-1000_LatLon0.15_PT210H.grib2 2026-04-29 16:40 1.7M
20260429T12Z_MSC_GDPS_WindV_IsbL-1015_LatLon0.15_PT210H.grib2 2026-04-29 16:40 1.6M